Race Results for
Chile Challenge PRO GRT
Angel Fire, NM
(Event Information)
Downhill on 06/09/2013

Note: Ranking points are NOT upgrade points. An explanation of ranking points can be found here.


Men - Pro - Progrt

 Place Points NameCity, StateTime USAC #BibTeam
1156.77 Michael Sylvestri   Truckee5:42.30 288977  39 
2163.06 Joey Schusler   Boulder, CO5:52.45 201238  48 Yeti / Fox Shox Factory
3169.35 Cody Warren   Alpine, CA5:53.43 160802  41 
4175.64 Austin Hackett Klaube   Dillon, CO5:55.47 294146  31 
5181.93 Chris Higgerson   Deansboro, NY5:57.70 208966  26 
6188.22 Zach Graveson   Pagosa Springs, CO5:59.77 350876  30 Fort Lewis College
7194.51 Andrew Terry   Kingston6:00.69 381701  49 
8200.80 Kellen Lutz   Fraser, CO6:02.93 265510  
9207.09 Kyle Hogan   Atascadero, CA6:03.57 368923  11 
10213.38 Adam Digby   San Juan Capistrano, CA6:04.08 295155  32 
11219.67 Ryan Paquette   San Clemente, CA6:04.47 351918  36 
12225.96 Scott Countryman   Flagstaff, AZ6:05.54 258025  
13232.25 Chris Boice   Albuquerque, NM6:06.22 215006  19 
14238.54 Johnathon Keep   Ramona, CA6:06.48 251434  40 
15244.83 Joseph Picchiottino   Idyllwild, CA6:06.99 135323  
16251.12 Harrison Ory   Denver, CO6:07.89 230690  10 
17257.41 Waylon Smith   Frazier Park, CA6:11.07 42824  45 
18263.70 Dillon Lemarr   Amarillo, TX6:11.93 291074  
19269.99 Kiran MacKinnon   Santa Cruz, CA6:12.01 298817  24 
20276.28 Ryan Walker   Scotts Valley, CA6:12.06 297530  35 
21282.57 Riley Mueller   Flagstaff, AZ6:12.21 290224  33 
22288.86 Matthew Thompson   Denver, CO6:12.38 99996  20 
23295.15 Steven Wentz   Costa Mesa, CA6:13.73 148884  29 
24301.44 Philip Wheeler   Colorado Springs, CO6:16.72 169103  23 
25307.73 Daniel Weinman   Taos6:18.46 161751  43 
26314.02 Bo MacArthur   Davis, CA6:19.20 320254  34 Bicycle Emporium
27320.31 David Seaquist   Henderson, NV6:21.93 324232  46 
28326.60 Lucas Cowan   San Diego Ca 921316:25.08 310952  22 Northern Arizona University
29332.89 William Lujan   Albuquerque, NM6:26.56 211813  44 
30339.18 Andre Pepin   Poway, CA6:26.77 234511  38 
31345.47 Antonio Gradillas   Albuquerque, NM6:28.47 180870  50 
31345.47 Wiley Kaupas   Dillon, CO6:28.47 292907  
33358.05 Greg Glynn   Nipomo, CA6:32.13 310112  12 
34364.34 Blair Reed   Boulder, CO6:44.93 201148  
35370.63 Matson Hunter   Tijeras, NM6:46.28 281707  
36376.92 Andrew Dean   Boulder, CO6:54.65 318778  18 
37383.21 Micah VanHorn   Broomfield, CO6:57.72 313394  
38 Mihai Moga   7:08.22  28 
39395.79 Scott Gladu   Flagstaff, AZ7:10.68 345540  
DNF Doug Ewer   Denver, CO996 182791  14 
DNF Larry Greene   Scottsdale, AZ996 112067  21 
DNF Mikey Haderer   Concord, CA996 190065  13 
DNF Paul McSparin   Frisco, CO996 294143  16 
DNF Trevor Trinkino   Evergreen, CO999 242852  15 

Men - Cat 1 - Junior - 15-18

 Place Points NameCity, StateTime USAC #BibTeam
1226.40 Cole Picchiottino   Murrieta, CA5:52.85 351042  122 
2239.80 Shane Leslie   Birmingham, MI5:54.39 317122  145 
3253.20 Chase Nelson   Littleton, CO6:06.75 264517  103 Trek/Fly/RideWRC.com
4266.60 Galen Carter   Salt Lake City, UT6:16.23 231784  135 
5280.00 Jason Schroeder   Carlsbad, CA6:16.98 356538  146 
6293.40 Niko Kilik   San Jose6:19.96 399742  174 
7306.80 Tanner Spence   Carbondale, CO6:25.77 246796  106 
8320.20 Tyler Spence   Carbondale, CO6:26.59 248811  107 
9333.60 Dylan Unger   Yorba Linda, CA6:27.77 347306  155 
10347.00 Charlie Harrison   Trabuco Canyon, CA6:31.95 375880  141 
11360.40 Jack Dean   Boulder, CO6:35.18 318372  198 
12373.80 Todd Renwick   Soulsbyville, CA6:35.59 359655  130 
13387.20 Matthew Parker   Hemet6:35.69 400121  157 
14400.60 Bryce Hermanussen   Golden, CO6:35.83 318756  159 
15414.00 Quintin Kurtz   Evergreen, CO6:36.96 259184  112 
16427.40 Demetri Triantafillou   Salt Lake City, UT6:38.04 374963  132 
17440.80 Tyler Krenek   Tucson, AZ6:41.09 355340  116 
18454.20 Oliver Vowel   Dillon, CO6:44.65 298244  139 
19467.60 Wyatt Freier   Castle Rock, CO6:45.40 309949  110 
20481.00 Andras Simon   Foothill Ranch6:49.91 397243  185 
21494.40 Dylan Kish   Granby, CO7:24.24 382678  126 
22507.80 Noah Fairburn   Huntsville, AL10:07.61 320970  193 
23521.20 Gavin Gargiulo   Colorado Springs, CO10:21.05 353172  142 Stratical Solutions
24534.60 Cory Holmes   Tucson, AZ15:28.87 355342  113 
DNF Roy Benge   Carbondale, CO999 246529  105 
DNF Matthew Branney   Littleton, CO999 219366  124 
DNF Dylan Crane   Carbondale999 379184  115 
DNF Max Kaupas   Dillon, CO999 292910  108 
DNF Andrew Schneider   Wheat Ridge, CO996 379316  152 

Men - Cat 1 - Senior - 19-29

 Place Points NameCity, StateTime USAC #BibTeam
1354.47 Brian White   Castle Rock, CO6:11.91 351914  140 
2364.28 Jacob Hatton   Eagle Nest, NM6:14.19 355336  191 
3374.09 Linton Judycki   Red River, NM6:21.64 353484  171 
4383.90 Joe Barry   Colorado Springs, CO6:22.13 321972  405 One Star Racing
5393.71 Thomas McCoy   June Lake, CA6:25.81 393409  100 
6403.52 robert nichols   Durango, CO6:28.58 384642  163 
7413.33 John Oddonetto   Flagstaff, AZ6:30.90 376090  120 
8423.14 Weston Walker   Laramie, WY6:32.88 358979  189 University of Wyoming
9432.95 Tyler Palmer   Moab, UT6:32.99 264725  160 
10442.76 Ty Brooks   Los Alamos, NM6:33.76 295797  195 
11452.57 max loewenstein   Durango, CO6:35.91 381846  128 
12462.38 Christian Gonzalez   Santa Clarita, CA6:37.70 358579  144 
13472.19 Kevin Feeney-Mosier   Boulder, CO6:38.36 379252  168 
14482.00 Logan Walker   Taylorsville6:41.46 366121  188 University of Wyoming
15491.81 Israel Tilman   Prescott6:41.55 367308  137 
16501.62 Bryan Pagel   Tucson, AZ6:46.07 366484  154 
17511.43 Ian Supple   Albuquerque, NM6:46.97 389215  192 
18521.24 Calvin Davis   Alamogordo Nm6:51.32 387585  194 
19531.05 kyle fitzgerald   Pinetop, AZ6:52.36 357899  129 
20540.86 Benjamin Williams   Angel Fire, NM6:54.43 406560  199 
21550.67 Sawyer Miller   Ruidoso, NM6:57.68 351294  125 
22560.48 Sage Brown   Tempe, AZ7:05.60 403314  153 
23570.29 Nicholas Lyle   Boulder, CO7:08.55 322804  143 University of Colorado Boulder
24580.10 Ryan Hockett   Poway Ca7:57.11 319448  147 
25589.91 sean cruse   Glendale, AZ8:02.08 401815  118 
DNS james fuller   Atascadero, CA 406723  169 

Men - Cat 1 - Master - 30+

 Place Points NameCity, StateTime USAC #BibTeam
1418.48 Leigh Harris   Golden6:18.05 392886  121 
2434.38 Kyle Lofstedt   Denver , CO6:31.51 382758  131 
3450.28 Joe Dodds   Lakewood, CO6:40.21 191597  156 
4466.18 Matt Giaraffa   Denver, CO6:47.98 296345  134 
5482.08 Ron Huber   Phoenix6:55.77 394623  158 
6497.98 Noah Priegel   Frisco, CO6:58.57 374498  151 
7513.88 Coy Miller   Caseyville, IL6:58.74 270672  401 Bike Surgeon/Continental Tire
8529.78 Moises Alarcon   Thornton, CO7:10.19 79633  133 
9545.68 Justin Richardson   Denver, CO7:27.82 353138  148 

Men - Cat 1 - Master - 40+

 Place Points NameCity, StateTime USAC #BibTeam
1430.57 Alexander Morgan   Amarillo6:30.09 25033  165 
2443.86 Neal Pederson   Los Alamos, NM6:31.20 212939  181 Bike n Sport Racing
3457.15 Ryan Steele   Lakewood, CO6:34.66 349504  149 
4470.44 William Dale   Bentonville, AR6:37.44 395751  102 
5483.73 Curt Clemetson   Aspen, CO6:43.94 279045  162 
6497.02 David Donohue   Sedona, AZ6:46.09 157403  119 
7510.31 John Lewis   Henderson, CO6:52.36 261966  101 
8523.60 Andrew Heine   Denver, CO6:55.13 298791  197 
9536.89 James Gillespie   Golden, CO7:03.26 215566  150 
10550.18 Bryan Redding   Winter Park, CO7:04.48 263281  114 
11563.47 Jason Hofman   Grand Junction, CO7:06.53 16452  123 
12576.76 Randy Hall   Las Vegas, NV7:55.64 64140  111 
13590.05 Tony Del Grippo   Golden, CO8:08.23 321520  109 
DNS Johnnie Kavanaugh   Denver, CO 75267  173 A Culture of Speed

Men - Cat 2 - Junior - 15-18

 Place Points NameCity, StateTime USAC #BibTeam
1466.64 Cole Hengeveld   Flagstaff, AZ6:41.39 367375  209 
2 Chris Anderson   6:47.44  281 
3481.16 Tristan Hunter   Phoenix, AZ6:48.73 407401  200 
4488.42 tucker kennedy   Colorado Springs6:49.77 406951  203 
5 Tyler Heuertz   6:54.22  241 
6502.94 Dan Strangfeld   Parker, CO6:56.35 329726  231 
7510.20 Bryce Helbling   Sandy, UT6:57.81 406096  211 
8517.46 Josh Pottridge   Van Buren, AR7:03.19 353982  206 
9524.72 Drey Smith   Ruidoso7:04.76 309761  286 
10531.98 Bailey Dale   Sturgis, SD7:07.07 381311  212 
11539.24 Shelby Denney   Ruidoso, NM7:07.99 411794  287 
12546.50 Grayson Richey   Colorado Springs, CO7:11.05 343688  230 
13553.76 Sam Cory   Golden, CO7:17.27 408319  205 
14561.02 Triton Nelson   Albuquerque, NM7:21.93 352812  244 
15568.28 Devon McDade   Lakewood, CO7:31.96 297034  237 
16 Deane Long   7:52.48  250 
17582.80 Shane Ellis   Durango, CO11:09.02 294216  218 Durango Devo
18590.06 Nicholas Haller   Monument, CO20:01.30 368362  227 

Men - Cat 2 - Senior - 19-29

 Place Points NameCity, StateTime USAC #BibTeam
1540.00 Brandon Watson   Telluride, CO6:44.36 355646  216 
2 Zachary Lowney   6:50.26  210 
3 Luca Digby   6:50.50  238 
4548.82 Jake Rehfeld   Albuquerque, NM6:53.58 316702  242 
5551.76 chuan banh   Albuquerque, NM6:59.84 298421  219 
6554.70 Lionel Martinez   Kayenta, AZ7:01.69 331764  208 
7 Johnny Eason   7:06.02  223 
8560.58 Josh Gonzales   Los Alamos, NM7:10.89 280532  285 
9 Jay Kendall Weingardt   7:17.64  282 
10566.46 Jonathan Sego   Bosque Farms, NM7:35.99 406456  274 
11569.40 Austin Hatala   Durango, CO7:41.01 407230  260 
12572.34 CORY HARALSON   Claremore, OK7:42.25 405573  259 
13575.28 Eric Ottosen   Holman, NM7:42.49 382382  248 
14 Anthony Laflam   8:11.20  202 
15581.16 Aaron Lovato   Santa Fe, NM8:12.02 381257  243 
16584.10 Marko Visnjic   Superior, CO8:21.05 362613  215 CU Cycling-Boulder
17587.04 Jordan Hunter   Phoenix, AZ10:36.43 407414  201 
18589.98 jonathan litton   Golden, CO13:08.93 407463  246 
DNS Hunter Askelson   Indian Hills, CO 389282  252 
DNS Patrick Barton   Claremore, OK 406631  253 
DNS David Gladu     232 
DNS Nicholas Olson   Henderson, NV 119222  240 
DNS Scott Preston   Albuquerque, NM 315842  402 
DNF Jamie Henderson   Colorado Springs 407181  234 One Star Racing

Men - Cat 2 - Master - 30+

 Place Points NameCity, StateTime USAC #BibTeam
1444.11 Allen Weber   Tijeras, NM6:01.89 366982  289 
2458.70 Ryan Sandlin   Flagstaffflagstaff, AZ6:56.87 406292  207 
3473.29 Eric Sunderland   Longmont, CO6:57.93 407037  245 
4487.88 Jonathan Glidden   Cloudcroft, NM7:07.35 407362  339 
5502.47 Andrew Finesilver   Destin, FL7:10.71 107642  257 
6517.06 Adam Croft   San Tan Valley, AZ7:25.09 345674  235 
7531.65 Joel Sears   Austin, TX7:38.99 407305  228 
8546.24 Matthew Dzuricky   Colorado Springs, CO7:40.50 397227  226 
9560.83 thomas rodriguez   Los Lunas, NM7:57.66 381126  403 
10575.42 Jordan Bawden   San Tan Valley, AZ8:05.60 393377  236 
11590.01 Andres Pinto   Broomfield, CO8:09.89 406982  273 

Men - Cat 2 - Master - 40+

 Place Points NameCity, StateTime USAC #BibTeam
1540.00 Paul Cherry   Lakewood, CO7:19.76 79569  284 
2547.14 Henning Plesner   Golden, CO7:28.50 191120  220 
3554.28 Joshua Michaels   Albuquerque, NM7:42.40 404483  270 
4561.42 Thomas Gallasch   Alamogordo, NM7:52.36 405710  258 
5568.56 Joseph Mueller   Mammothlakes, CA8:02.06 292081  233 
6575.70 george triantafillou   Salt Lake City, UT8:14.06 406460  224 
7582.84 Michael Knowles   Prescott, AZ8:28.83 262143  251 
8589.98 Chris Hereford   Albuquerque, NM9:29.99 15911  283 Goathead Jr. Devo

Men - Cat 3 - Junior - 15-18

 Place Points NameCity, StateTime USAC #BibTeam
1540.00 Sean Ungvarsky   Phoenix, AZ7:18.44 405064  327 
2546.25 Sam Vickery   Littleton7:36.12 407184  312 
3552.50 Spencer Caley   Monument, CO7:44.75 396312  331 
4558.75 Tanner Stolt   Bella Vista, AR7:55.23 402278  301 
5565.00 Ben Liptak   Albuquerque8:10.33 406740  304 
6571.25 Zachary Agena   Rapid City, SD8:18.53 406514  316 
7577.50 Evan Burgett   Golden, CO8:19.36 407371  310 
8583.75 marcus judkins   Albuquerque8:41.93 407356  326 
9590.00 Jakob Hurworth   Ignacio Co9:10.94 407080  308 Durango Devo

Men - Cat 3 - Senior - 19-29

 Place Points NameCity, StateTime USAC #BibTeam
1 Tyler Gavigan   7:00.55  317 
2546.25 Dustin Slaughter   Rogers7:01.04 404519  302 
3552.50 Nick Wilvert   Albuquerque, NM7:23.09 406823  329 
4558.75 Andres Brizeno   Edgewood Nm.7:51.50 395516  300 
5 James Hartshorn   7:57.11  347 
6571.25 Ayden Hibner-Hereford   Albuquerque, NM8:26.76 252570  359 Goathead Jr. Devo
7577.50 Scott Gallagher   Oviedo, FL8:27.21 407344  320 
8 Jed Bootzin   9:15.07  362 
9590.00 Douglas Torres   Albuquerque, NM9:17.43 340014  406 High Desert Bicycles Team

Men - Cat 3 - Master - 30+

 Place Points NameCity, StateTime USAC #BibTeam
1540.00 Lee Dieckman   Westminster, CO7:44.26 379413  338 
2547.14 Sergio Cortez   Houston Tx8:19.89 406579  334 
3 James Palmer   8:20.69  361 
4561.42 Doug Strangfeld   Parker, CO8:26.26 329908  322 
5 Steven Litton   8:34.06  363 
6 Tim West   9:01.76  356 
7 Johnny Chavez   9:47.36  321 
8 Jason Smith   12:23.35  354 

Men - Junior - <14

 Place Points NameCity, StateTime USAC #BibTeam
1503.32 Brad Stover   Rapid City, SD7:11.16 321556  315 
2511.99 Armen Davis   Longmont, CO7:15.31 293962  305 
3520.66 Chase Willie   Longmont, CO7:15.38 298487  319 SMBA(Singletrack Mountain Bike Adventure
4 Cedar Palmer   7:26.98  313 
5538.00 Quinn Reece   Boulder, CO7:36.35 378260  307 SMBA(Singletrack Mountain Bike Adventure
6546.67 Sam Morris   Salt Lake City7:40.23 382005  311 
7555.34 Michael Kelly   Longmont7:43.50 407173  318 
8564.01 Alex Holtzen   Boulder, CO7:49.85 321534  303 
9 Teddy Jaramillo   8:39.61  360 
10581.35 Caedon Decker   Evergreen, CO11:09.30 407365  323 
11590.02 Dylan Ramos   Albuquerque, NM14:18.10 380899  324 
DNS Trent Del Grippo   Golden, CO 314386  306 

Women - Pro - Progrt

 Place Points NameCity, StateTime USAC #BibTeam
1462.59 Wendy Palmer   Moab, UT7:23.16 201162  37 
2505.06 Amber Price   Westminster, CO8:20.68 255122  42 
3547.53 Katy Hanlon   Avon, CO9:41.56 286012  27 
4590.00 Christen Boyer   Aspen, CO11:30.65 248742  25 

Women - Cat 1 - Junior - 15-18

 Place Points NameCity, StateTime USAC #BibTeam
1540.00 Michelle Pederson   Los Alamos, NM9:18.94 378263  182 Bike n Sport Racing
2565.00 Samantha Kingshill   Sacramento, CA10:09.41 405259  136 
3590.00 Summer Hull   Tucson19:00.55 399637  104 

Women - Cat 1 - Senior - 19-29

 Place Points NameCity, StateTime USAC #BibTeam
1 Meghan Kane   Dillon, CO8:05.45 223279  161 Fort Lewis College
2 Amanda Cordell   Salt Lake City, UT8:25.43 368535  117 

Women - Cat 1 - Master - 30-39

 Place Points NameCity, StateTime USAC #BibTeam
1540.00 Lindsay Yost   Brighton, CO7:53.25 330222  138 
2565.00 Noelle Champagne   Atascadero, CA8:21.84 374732  127 
3590.00 Corrine Miller   Caseyville, IL9:12.83 283598  400 Bike Surgeon/Continental Tire

Women - Cat 2 - Senior - 19-29

 Place Points NameCity, StateTime USAC #BibTeam
1 Jacqueline thomas   Winter Park8:10.82 407465  249 
2 Terah Blake   Missoula Montana8:56.98 377697  214 

Women - Cat 2 - Master - 30+

 Place Points NameCity, StateTime USAC #BibTeam
1540.00 Krista Park   Madison, SD8:23.26 203842  330 
2556.67 Erin Sears   Austin9:07.47 407341  229 
3573.34 Sabrina Norton   Golden, CO9:59.21 396309  221 
4590.01 Rachel Weaver   Santa Fe, NM11:35.85 316416  204 

Women - Cat 3 - Junior - 15-18

 Place Points NameCity, StateTime USAC #BibTeam
1 Sarah Iosco   Huntsville 9:30.04 406644  340 

Women - Cat 3 - Senior - 19-29

 Place Points NameCity, StateTime USAC #BibTeam
1 Jill Blecke   Albuquerque, NM11:24.35 407082  314 
2 Kristen Naber   Albuquerque16:37.92 406822  328 

Women - Junior - <14

 Place Points NameCity, StateTime USAC #BibTeam
1 McKenna Merten   Jamul Ca12:28.96 378493  309 

Report missing or incorrect license numbers

Volkswagen
SpyOSMOUSACDFBonk BreakerCUORESierra NevadaShimano
UCI USA Cycling is the official governing body for all disciplines of competitive cycling in the United States. The 501c3, membership-based organization aims both to achieve sustained success in international cycling competition and to grow competitive cycling in America while delivering an exceptional customer experience.
View Children's Online Privacy Protection Policy
US Olympic Committee